Tracking 20382 objects as of 24-Feb-2020
HD Live streaming from Space Station
objects crossing your sky now
Track the group of recently launched Starlink satellites

OSCAR 27

Track OSCAR 27 now!
10-day predictions
OSCAR 27 is classified as:


NORAD ID: 18361
Int'l Code: 1987-080A
Perigee: 1,021.6 km
Apogee: 1,177.9 km
Inclination: 90.3 °
Period: 107.1 minutes
Semi major axis: 7470 km
RCS: 1.5699 m2 (large)
Launch date: September 16, 1987
Source: United States (US)
Launch site: AIR FORCE WESTERN TEST RANGE (AFWTR)
aabbcc
Your satellite tracking list
Your tracking list is empty




NASA's NSSDC Master Catalog

Two Line Element Set (TLE):
1 18361U 87080A   20055.44403616  .00000032  00000-0  38506-4 0  9993
2 18361  90.3205   7.1706 0104655 168.2299 192.1332 13.44489371591155
Source of the keplerian elements: AFSPC